Tracking 22124 objects as of 25-Jan-2021
HD Live streaming from Space Station
objects crossing your sky now

STARLINK-1739

Track STARLINK-1739 now!
10-day predictions
STARLINK-1739 is classified as:


NORAD ID: 46363
Int'l Code: 2020-062AQ
Perigee: 436.7 km
Apogee: 438.3 km
Inclination: 53.0 °
Period: 93.2 minutes
Semi major axis: 6808 km
RCS: Unknown
Launch date: September 3, 2020
Source: United States (US)
Launch site: AIR FORCE EASTERN TEST RANGE (AFETR)
aabbcc
Your satellite tracking list
Your tracking list is empty




NASA's NSSDC Master Catalog

Two Line Element Set (TLE):
1 46363U 20062AQ  21025.58335648 -.00709700  00000-0 -15798-1 0  9990
2 46363  52.9997  84.4223 0001169  80.5220 238.4959 15.45359840 23348
Source of the keplerian elements: AFSPC